Regional Weather Roundup
Issued by NWS Memphis, TN

Home | Current Version | Previous Version | Text Only | Print | Product List | Glossary On
Versions: 1 2 3 4 5 6 7 8 9 10 11 12 13 14 15 16 17 18 19 20 21 22 23 24 25 26 27 28 29 30 31 32 33 34 35 36 37 38 39 40 41 42 43 44 45 46 47 48 49 50
000
ASUS44 KMEG 200200
RWRMEG
MEMPHIS CWA HOURLY WEATHER ROUNDUP
NATIONAL WEATHER SERVICE MEMPHIS TN
900 PM CDT SAT APR 19 2014

...WEST TENNESSEE...

CITY           SKY/WX    TMP DP  RH WIND       PRES   REMARKS
MEMPHIS INTL   PTCLDY    68  43  40 NE5       30.15R
NWS MEMPHIS      N/A     64 N/A N/A MISG        N/A
JACKSON        MOCLDY    62  42  47 CALM      30.15R
LEXINGTON      CLEAR     63  37  39 N5        30.15R
DYERSBURG      PTCLDY    64  39  39 CALM      30.17R
UNION CITY     CLEAR     66  39  37 NE5       30.15S


...EASTERN ARKANSAS...

CITY           SKY/WX    TMP DP  RH WIND       PRES   REMARKS
JONESBORO      CLEAR     59  48  67 CALM      30.16R
WEST MEMPHIS   CLEAR     65  46  50 N5        30.14R
BATESVILLE     CLEAR     64  45  48 SE5       30.16R
WALNUT RIDGE   CLEAR     66  48  52 E5        30.17R
BLYTHEVILLE    CLEAR     64  49  57 N3        30.16R
SEARCY         CLEAR     62  50  65 CALM      30.17R
STUTTGART      CLEAR     70  50  49 CALM      30.16S
PINE BLUFF     CLEAR     66  54  65 E3        30.14S
MONTICELLO     CLEAR     64  54  69 CALM      30.14R


...NORTH MISSISSIPPI...

CITY           SKY/WX    TMP DP  RH WIND       PRES   REMARKS
TUPELO         CLEAR     64  46  52 CALM      30.13R
TUNICA         CLEAR     64  46  52 N5        30.15R
GRENADA        CLEAR     59  52  77 NW3       30.13S
GREENWOOD      CLEAR     61  53  75 CALM      30.12R
STARKVILLE     FAIR      59  50  72 CALM      30.12S
GOLDEN TRIANGL CLEAR     66  46  48 CALM      30.15R


...SOUTHEAST MISSOURI...

CITY           SKY/WX    TMP DP  RH WIND       PRES   REMARKS
DONIPHAN         N/A     61  42  48 CALM        N/A
WEST PLAINS    CLEAR     64  40  41 S5        30.17R
POPLAR BLUFF   CLEAR     63  50  62 CALM      30.15S
CAPE GIRARDEAU MOCLDY    63  49  60 E3        30.17R


...NORTHWEST ALABAMA...

CITY           SKY/WX    TMP DP  RH WIND       PRES   REMARKS
MUSCLE SHOALS  CLEAR     62  44  51 CALM      30.15R


...MIDDLE TENNESSEE...

CITY           SKY/WX    TMP DP  RH WIND       PRES   REMARKS
NASHVILLE      PTCLDY    66  40  38 N6        30.16R
CLARKSVILLE    CLEAR     61  42  49 CALM      30.17R
COLUMBIA       CLEAR     59  48  67 CALM      30.15R


...WESTERN KENTUCKY...

CITY           SKY/WX    TMP DP  RH WIND       PRES   REMARKS
PADUCAH        PTCLDY    64  42  44 NE5       30.17R
FORT CAMPBELL  CLEAR     63  41  45 N3        30.17R


...CENTRAL ARKANSAS...

CITY           SKY/WX    TMP DP  RH WIND       PRES   REMARKS
LITTLE ROCK    PTCLDY    65  50  58 SE5       30.14S


SKY/WX REPORTED AS FAIR MEANS FEW OR NO CLOUDS BELOW
12 THOUSAND FEET.




USA.gov is the U.S. government's official web portal to all federal, state and local government web resources and services.